FW8545 Weather Reports


Display with metric or nautical units.
time (UTC)temp
F
wind
direction
speed
MPH
gust
MPH
rain 1hr
in
rain 24hr
in
rain mn
in
humidity
%
barometer
mb
20260504045954 54 178 1.0 7.0 0.00 0.00 0.00 43 1015.8
20260504044958 54 11 1.0 7.0 0.00 0.00 0.00 42 1015.5
20260504043938 55 66 0.0 0.0 0.00 0.00 0.00 39 1015.2
20260504042906 55 54 1.0 2.0 0.00 0.00 0.00 39 1015.1
20260504041917 55 339 0.0 5.0 0.00 0.00 0.00 39 1015.0
20260504040935 56 350 0.0 5.0 0.00 0.00 0.00 36 1014.8
20260504035954 56 319 0.0 5.0 0.00 0.00 0.00 36 1014.5
20260504033822 57 327 1.0 5.0 0.00 0.00 0.00 35 1013.9
20260504031747 58 342 0.0 0.0 0.00 0.00 0.00 35 1013.2
20260504025554 58 322 0.0 3.0 0.00 0.00 0.00 35 1012.5
20260504023347 59 350 0.0 5.0 0.00 0.00 0.00 33 1012.3
20260504021308 61 51 1.0 7.0 0.00 0.00 0.00 32 1012.0
20260504020328 62 313 1.0 4.0 0.00 0.00 0.00 31 1011.8
20260504015309 64 80 0.0 4.0 0.00 0.00 0.00 31 1011.5
20260504014329 64 22 1.0 5.0 0.00 0.00 0.00 31 1011.2
20260504013328 65 313 1.0 6.0 0.00 0.00 0.00 31 1011.1
20260504012307 65 340 1.0 6.0 0.00 0.00 0.00 30 1011.0
20260504011235 67 349 0.0 5.0 0.00 0.00 0.00 30 1010.8
20260504010250 67 329 0.0 2.0 0.00 0.00 0.00 30 1010.6
20260504005308 67 82 1.0 0.0 0.00 0.00 0.00 31 1010.4
20260504004304 68 352 0.0 5.0 0.00 0.00 0.00 30 1010.4
20260504003245 68 292 1.0 7.0 0.00 0.00 0.00 30 1010.4
20260504002310 68 55 0.0 7.0 0.00 0.00 0.00 30 1010.2
20260504000200 69 326 1.0 7.0 0.00 0.00 0.00 28 1010.1
20260503234045 70 338 1.0 5.0 0.00 0.00 0.00 27 1009.7
20260503233043 70 340 1.0 5.0 0.00 0.00 0.00 27 1009.7
20260503232053 71 315 1.0 7.0 0.00 0.00 0.00 26 1009.4
20260503231115 73 352 1.0 7.0 0.00 0.00 0.00 24 1009.3
20260503225002 75 321 0.0 1.0 0.00 0.00 0.00 23 1009.1
20260503223933 74 324 0.0 0.0 0.00 0.00 0.00 24 1009.2
20260503220703 73 345 1.0 5.0 0.00 0.00 0.00 24 1009.3
20260503214453 74 339 1.0 7.0 0.00 0.00 0.00 24 1009.3
20260503213447 73 316 1.0 7.0 0.00 0.00 0.00 23 1009.3
20260503212428 74 331 0.0 5.0 0.00 0.00 0.00 23 1009.3
20260503211445 74 327 0.0 2.0 0.00 0.00 0.00 23 1009.3
20260503210426 75 325 0.0 3.0 0.00 0.00 0.00 22 1009.5
20260503205445 74 292 0.0 1.0 0.00 0.00 0.00 20 1009.5
20260503202157 73 261 0.0 2.0 0.00 0.00 0.00 20 1009.8
20260503201136 73 324 0.0 1.0 0.00 0.00 0.00 21 1010.0
20260503200124 73 318 0.0 0.0 0.00 0.00 0.00 23 1010.0
20260503195121 72 236 0.0 3.0 0.00 0.00 0.00 21 1010.2
20260503194127 72 88 0.0 0.0 0.00 0.00 0.00 23 1010.4
20260503193130 71 285 1.0 1.0 0.00 0.00 0.00 21 1010.5
20260503191028 70 342 1.0 4.0 0.00 0.00 0.00 22 1011.0
20260503190030 70 0 0.0 3.0 0.00 0.00 0.00 22 1011.2
20260503185007 71 341 0.0 5.0 0.00 0.00 0.00 23 1011.3
20260503183952 70 260 0.0 3.0 0.00 0.00 0.00 24 1011.4
20260503181837 69 293 0.0 5.0 0.00 0.00 0.00 25 1011.7
20260503180859 69 329 0.0 5.0 0.00 0.00 0.00 25 1012.0
20260503175904 69 232 0.0 2.0 0.00 0.00 0.00 25 1012.3
20260503174918 69 336 0.0 1.0 0.00 0.00 0.00 26 1012.5
20260503173913 69 336 0.0 4.0 0.00 0.00 0.00 26 1012.6
20260503172918 68 244 1.0 5.0 0.00 0.00 0.00 26 1012.6
20260503171938 68 346 0.0 5.0 0.00 0.00 0.00 24 1012.8
20260503170948 68 339 0.0 2.0 0.00 0.00 0.00 26 1012.8
20260503150827 52 292 0.0 0.0 0.00 0.00 0.00 47 1013.4
20260503120129 39 288 0.0 0.0 0.00 0.00 0.00 59 1013.9
20260503080655 46 82 0.0 0.0 0.00 0.00 0.00 49 1013.8
20260503072447 48 82 0.0 0.0 0.00 0.00 0.00 47 1013.8
20260503071415 48 82 0.0 0.0 0.00 0.00 0.00 47 1013.7
20260503070406 48 82 0.0 0.0 0.00 0.00 0.00 47 1013.8